This demonstration page uses our WeatherBlox Daily Observations layout. Learn more.

Left ArrowRight Arrow

40.97296, -117.73568

Hourly Observations for August 17, 2022

Temp ( °F °C ) Dew Point ( °F °C ) Humidity (%) Winds ( mph kmh ) Pressure ( in mb ) Visibility ( mi km ) Precip ( " mm )
12:56 am 00:56 Clear 63 17.2 39 3.9 41 41 E 7 11 29.89 1012 10 16 0.00 0.00
1:56 am 01:56 Clear 60 15.6 38 3.3 44 44 SSE 7 11 29.91 1013 10 16 0.00 0.00
2:56 am 02:56 Clear 58 14.4 38 3.3 47 47 NNW 3 6 29.92 1013 10 16 0.00 0.00
3:56 am 03:56 Clear 58 14.4 37 2.8 46 46 Calm 29.93 1013 10 16 0.00 0.00
4:56 am 04:56 Clear 56 13.3 38 3.3 51 51 SE 5 7 29.93 1014 10 16 0.00 0.00
5:56 am 05:56 Clear 58 14.4 39 3.9 49 49 E 6 9 29.94 1014 10 16 0.00 0.00
6:56 am 06:56 Sunny 64 17.8 39 3.9 40 40 S 7 11 29.96 1014 10 16 0.00 0.00
7:56 am 07:56 Sunny 69 20.6 41 5 36 36 SSE 5 7 29.96 1015 10 16 0.00 0.00
8:56 am 08:56 Sunny 82 27.8 37 2.8 20 20 ENE 13 20 29.95 1014 10 16 0.00 0.00
9:56 am 09:56 Sunny 87 30.6 38 3.3 18 18 E 6 9 29.94 1014 10 16 0.00 0.00
10:56 am 10:56 Sunny 91 32.8 37 2.8 15 15 SSE 5 7 29.95 1014 10 16 0.00 0.00
11:56 am 11:56 Sunny 97 36.1 36 2.2 12 12 VRB 5 7 29.93 1013 10 16 0.00 0.00
12:56 pm 12:56 Sunny 99 37.2 35 1.7 11 11 SW 12 19 29.90 1013 10 16 0.00 0.00
1:56 pm 13:56 Sunny 101 38.3 34 1.1 10 10 NW 10 17 29.88 1012 10 16 0.00 0.00
2:56 pm 14:56 Sunny 103 39.4 32 0 9 9 NW 9 15 29.86 1011 10 16 0.00 0.00
3:32 pm 15:32 Sunny 100 37.8 29 -1.7 8 8 VRB 7 11 29.55 1001 10 16 0.00 0.00
3:56 pm 15:56 Sunny 102 38.9 30 -1.1 8 8 NE 9 15 29.84 1011 10 16 0.00 0.00
4:56 pm 16:56 Sunny 101 38.3 29 -1.7 8 8 Calm 29.83 1010 10 16 0.00 0.00
5:56 pm 17:56 Sunny 100 37.8 27 -2.8 8 8 ENE 7 11 29.82 1010 10 16 0.00 0.00
6:56 pm 18:56 Sunny 98 36.7 30 -1.1 9 9 N 10 17 29.80 1009 10 16 0.00 0.00
7:56 pm 19:56 Clear 90 32.2 36 2.2 15 15 W 16 26 29.83 1010 10 16 0.00 0.00
8:56 pm 20:56 Clear 88 31.1 40 4.4 19 19 WSW 22 35 29.83 1010 9 14 0.00 0.00
9:56 pm 21:56 Clear 87 30.6 40 4.4 19 19 SW 15 24 29.86 1011 10 16 0.00 0.00
10:56 pm 22:56 Clear 84 28.9 44 6.7 25 25 SW 18 30 29.85 1011 10 16 0.00 0.00
11:56 pm 23:56 Clear 82 27.8 45 7.2 27 27 WSW 9 15 29.87 1012 10 16 0.00 0.00

Powered by AerisWeather